DW5914 Weather Reports


Display with metric or nautical units.
time (UTC)temp
F
wind
direction
speed
MPH
gust
MPH
rain 1hr
in
rain 24hr
in
rain mn
in
humidity
%
barometer
mb
20260503203058 64 329 3.0 11.0 0.00 0.00 0.00 64 1014.6
20260503201553 62 325 6.0 14.0 0.00 0.00 0.00 68 1014.9
20260503200056 61 42 6.0 13.0 0.00 0.00 0.00 70 1015.0
20260503194558 61 355 6.0 20.0 0.00 0.00 0.00 70 1015.2
20260503193049 62 287 5.0 10.0 0.00 0.00 0.00 71 1015.2
20260503191552 63 344 3.0 9.0 0.00 0.00 0.00 71 1015.3
20260503190048 62 330 4.0 7.0 0.00 0.00 0.00 72 1015.4
20260503184542 61 360 2.0 8.0 0.00 0.00 0.00 74 1015.6
20260503183041 61 329 3.0 9.0 0.00 0.00 0.00 74 1015.9
20260503181539 60 349 4.0 10.0 0.00 0.00 0.00 76 1016.0
20260503180036 59 10 2.0 10.0 0.00 0.00 0.00 78 1016.0
20260503174535 59 5 4.0 11.0 0.00 0.00 0.00 79 1016.2
20260503173038 59 360 3.0 12.0 0.00 0.00 0.00 79 1016.3
20260503171535 58 341 4.0 10.0 0.00 0.00 0.00 81 1016.4
20260503110110 58 18 3.0 8.0 0.00 0.00 0.00 79 1016.7
20260503081537 60 355 4.0 9.0 0.00 0.00 0.00 69 1016.5
20260503071532 62 53 2.0 6.0 0.00 0.00 0.00 63 1016.4
20260503054531 62 9 5.0 8.0 0.00 0.00 0.00 64 1016.0
20260503053024 61 42 4.0 7.0 0.00 0.00 0.00 65 1016.1
20260503051523 62 44 4.0 7.0 0.00 0.00 0.00 64 1016.1
20260503050034 62 15 4.0 9.0 0.00 0.00 0.00 63 1016.1
20260503044522 61 29 5.0 9.0 0.00 0.00 0.00 64 1016.0
20260503043021 61 30 5.0 7.0 0.00 0.00 0.00 64 1015.9
20260503041531 61 52 5.0 8.0 0.00 0.00 0.00 64 1015.8
20260503040020 61 12 5.0 8.0 0.00 0.00 0.00 63 1015.6
20260503034520 61 12 4.0 10.0 0.00 0.00 0.00 65 1015.4
20260503033020 61 341 5.0 10.0 0.00 0.00 0.00 65 1015.3
20260503031519 61 5 4.0 14.0 0.00 0.00 0.00 64 1015.2
20260503030023 60 40 5.0 8.0 0.00 0.00 0.00 67 1015.1
20260503024519 61 41 4.0 10.0 0.00 0.00 0.00 67 1015.1
20260503023016 61 92 5.0 8.0 0.00 0.00 0.00 67 1015.2
20260503021521 61 9 4.0 9.0 0.00 0.00 0.00 68 1015.2
20260503020016 61 57 4.0 9.0 0.00 0.00 0.00 69 1015.2
20260503014514 60 16 4.0 9.0 0.00 0.00 0.00 70 1015.4
20260503013013 60 29 4.0 9.0 0.00 0.00 0.00 72 1015.4
20260503011512 60 315 5.0 10.0 0.00 0.00 0.00 72 1015.6
20260503010012 61 355 4.0 12.0 0.00 0.00 0.00 69 1015.6
20260503004511 62 5 4.0 13.0 0.00 0.00 0.00 68 1015.7
20260503003009 62 35 4.0 9.0 0.00 0.00 0.00 68 1015.8
20260503001511 62 348 5.0 10.0 0.00 0.00 0.00 67 1015.8
20260503000005 61 5 5.0 8.0 0.00 0.00 0.00 70 1015.9
20260502234503 60 44 5.0 10.0 0.00 0.00 0.00 74 1016.1
20260502233002 60 21 6.0 12.0 0.00 0.00 0.00 74 1016.3
20260502231502 60 348 5.0 10.0 0.00 0.00 0.00 73 1016.2
20260502230100 61 5 3.0 11.0 0.00 0.00 0.00 71 1016.5
20260502224604 61 27 5.0 12.0 0.00 0.00 0.00 72 1016.6
20260502223057 61 355 5.0 11.0 0.00 0.00 0.00 71 1016.8
20260502221552 61 78 5.0 11.0 0.00 0.00 0.00 71 1017.2
20260502220050 60 13 6.0 14.0 0.00 0.00 0.00 75 1017.3
20260502214547 59 346 8.0 16.0 0.00 0.00 0.00 75 1017.5
20260502213045 59 319 4.0 12.0 0.00 0.00 0.00 77 1017.7
20260502211543 59 68 5.0 10.0 0.00 0.00 0.00 78 1017.9
20260502210045 58 343 4.0 14.0 0.00 0.00 0.00 79 1018.2
20260502204544 59 360 3.0 8.0 0.00 0.00 0.00 80 1018.3